Estación de Sagrada Familia

Ultimos registro cada 15 minutos 47
Estación Fecha / Hora Temperatura Humedad Lluvia Velocidad Dirección Radiación Presion
47 Sagrada Familia 08-05-2026 11:30 14,3 69 0 0 163 473 1021,5
46 Sagrada Familia 08-05-2026 11:15 13,8 73 0 0 86 322 1021,6
45 Sagrada Familia 08-05-2026 11:00 13,1 72 0 0 43 504 1021,8
44 Sagrada Familia 08-05-2026 10:45 12,2 77 0 0 141 489 1021,6
43 Sagrada Familia 08-05-2026 10:30 11,3 78 0 0,4 61 461 1021,8
42 Sagrada Familia 08-05-2026 10:15 10,2 81 0 0 150 432 1022,2
41 Sagrada Familia 08-05-2026 10:00 9,5 86 0 0,4 139 401 1022,4
40 Sagrada Familia 08-05-2026 09:45 8,2 92 0 0 147 364 1022,6
39 Sagrada Familia 08-05-2026 09:30 7,2 95 0 0,4 13 311 1022,8
38 Sagrada Familia 08-05-2026 09:15 6,4 96 0 0 2 260 1022,8
37 Sagrada Familia 08-05-2026 09:00 5,7 96 0 0 55 46 1022,8
36 Sagrada Familia 08-05-2026 08:45 4,6 96 0 0 150 65 1022,6
35 Sagrada Familia 08-05-2026 08:30 3,6 96 0 0,4 150 84 1022,7
34 Sagrada Familia 08-05-2026 08:15 2,7 95 0 0 150 33 1022,1
33 Sagrada Familia 08-05-2026 08:00 2,2 94 0 0 163 23 1021,7
32 Sagrada Familia 08-05-2026 07:45 2 94 0 0 163 14 1021,8
31 Sagrada Familia 08-05-2026 07:30 2,1 94 0 0 155 0 1022
30 Sagrada Familia 08-05-2026 07:15 1,9 93 0 0 177 0 1022,2
29 Sagrada Familia 08-05-2026 07:00 2,1 93 0 0 156 0 1022,3
28 Sagrada Familia 08-05-2026 06:45 2,2 93 0 0 115 0 1022,6
27 Sagrada Familia 08-05-2026 06:30 2,3 93 0 0 115 0 1022,8
26 Sagrada Familia 08-05-2026 06:15 2,4 93 0 0 115 0 1022,7
25 Sagrada Familia 08-05-2026 06:00 2,5 92 0 0 115 0 1022,4
24 Sagrada Familia 08-05-2026 05:45 2,8 93 0 0 144 0 1022,7
23 Sagrada Familia 08-05-2026 05:30 2,9 93 0 0 150 0 1022,7
22 Sagrada Familia 08-05-2026 05:15 2,9 92 0 0 163 0 1022,7
21 Sagrada Familia 08-05-2026 05:00 3,1 92 0 0 159 0 1022,5
20 Sagrada Familia 08-05-2026 04:45 3,3 92 0 0 159 0 1022,4
19 Sagrada Familia 08-05-2026 04:30 3,5 92 0 0 159 0 1022,7
18 Sagrada Familia 08-05-2026 04:15 3,6 92 0 0 159 0 1022,8
17 Sagrada Familia 08-05-2026 04:00 3,7 91 0 0 159 0 1022,9
16 Sagrada Familia 08-05-2026 03:45 3,8 91 0 0 173 0 1023,1
15 Sagrada Familia 08-05-2026 03:30 3,8 90 0 0 196 0 1023,5
14 Sagrada Familia 08-05-2026 03:15 3,9 89 0 0 196 0 1023,8
13 Sagrada Familia 08-05-2026 03:00 4,3 88 0 0 196 0 1023,6
12 Sagrada Familia 08-05-2026 02:45 4,7 88 0 0 196 0 1023,7
11 Sagrada Familia 08-05-2026 02:30 4,9 88 0 0 196 0 1023,6
10 Sagrada Familia 08-05-2026 02:15 5,3 86 0 0 196 0 1023,9
9 Sagrada Familia 08-05-2026 02:00 5,7 86 0 0 196 0 1024
8 Sagrada Familia 08-05-2026 01:45 6,2 85 0 0 196 0 1023,9
7 Sagrada Familia 08-05-2026 01:30 6,8 83 0 0 196 0 1024,1
6 Sagrada Familia 08-05-2026 01:15 7,5 82 0 0 196 0 1024,2
5 Sagrada Familia 08-05-2026 01:00 8,3 80 0 0 196 0 1024,4
4 Sagrada Familia 08-05-2026 00:45 8,7 78 0 0,4 196 0 1024,7
3 Sagrada Familia 08-05-2026 00:30 8,6 78 0 0 332 0 1024,5
2 Sagrada Familia 08-05-2026 00:15 9,5 75 0 0 314 0 1024,5
1 Sagrada Familia 08-05-2026 00:00 9,8 74 0 0,4 292 0 1024,7